Flag for Germany Weather past 2 weeks in Garbsen, Lower Saxony, Germany

Now
64 °F

Broken clouds.


Feels Like: 64 °F
Forecast: 51 / 64 °F
Wind: 9 mph from Southwest

Location: Hannover

Current Time: Aug 22, 2014 at 4:06:50 PM

Latest Report: Aug 22, 2014 at 3:20 PM


Visibility: N/A

Pressure: 29.86 "Hg

Humidity: 52%

Dew point: 46 °F

Location of GarbsenLocation

Historic Weather in Garbsen — Graph

°F

Garbsen temperature yesterday

Maximum temperature yesterday: 64 °F (at 3:20 PM)
Minimum temperature yesterday: 50 °F (at 3:20 AM)
Average temperature yesterday: 57 °F

Past Weeks' High & Low Weather Summary

 TemperatureHumidityPressure
High79 °F (Aug 8, 4:50 PM)100% (Aug 8, 12:20 AM)30.01 "Hg (Aug 8, 12:20 AM)
Low50 °F (Aug 20, 12:50 AM)38% (Aug 11, 4:50 PM)29.59 "Hg (Aug 10, 8:50 PM)
Average61 °F75%29.83 "Hg
* Reported Aug 7 2:20 PM — Aug 22 2:50 PM, Garbsen, Weather by CustomWeather, © 2014

Note: Actual official high and low records may vary slightly from our data, if they occured in-between our weather recording intervals... More about our weather records

Advertising

Garbsen weather history for previous 24 hours

 ConditionsComfort  
Time TempWeatherWind HumidityBarometerVisibility
2:50 PM
Aug 22
64 °FBroken clouds.8 mph52%29.86 "HgN/A
2:20 PM64 °FPartly sunny.12 mph52%29.86 "HgN/A
1:50 PM64 °FPartly sunny.14 mph52%29.86 "HgN/A
1:20 PM63 °FPartly sunny.8 mph56%29.86 "HgN/A
12:50 PM63 °FLight rain. Partly sunny.9 mph56%29.86 "HgN/A
12:20 PM63 °FPartly sunny.12 mph59%29.89 "HgN/A
11:50 AM61 °FPartly sunny.13 mph59%29.89 "HgN/A
11:20 AM63 °FScattered clouds.13 mph59%29.89 "HgN/A
10:50 AM61 °FScattered clouds.13 mph59%29.89 "HgN/A
10:20 AM63 °FScattered clouds.13 mph56%29.89 "HgN/A
9:50 AM61 °FSunny.14 mph63%29.89 "Hg10 mi
9:20 AM59 °FPassing clouds.14 mph68%29.89 "HgN/A
8:50 AM57 °FSunny.10 mph72%29.89 "Hg10 mi
8:20 AM55 °FSunny.12 mph77%29.89 "Hg10 mi
7:50 AM55 °FSunny.10 mph77%29.89 "Hg10 mi
7:20 AM55 °FSunny.9 mph72%29.89 "Hg10 mi
6:50 AM54 °FClear.7 mph77%29.89 "Hg10 mi
6:20 AM54 °FClear.7 mph77%29.89 "Hg10 mi
5:50 AM54 °FClear.7 mph77%29.89 "Hg10 mi
5:20 AM55 °FClear.8 mph72%29.89 "Hg10 mi
4:20 AM54 °FClear.3 mph77%29.92 "Hg10 mi
3:50 AM55 °FClear.6 mph72%29.92 "Hg10 mi
3:20 AM55 °FClear.7 mph72%29.92 "Hg10 mi
2:50 AM55 °FClear.7 mph72%29.92 "Hg10 mi
2:20 AM54 °FClear.7 mph77%29.92 "Hg10 mi
1:50 AM55 °FClear.7 mph72%29.92 "Hg10 mi
1:20 AM55 °FClear.6 mph72%29.95 "Hg10 mi
12:50 AM54 °FClear.6 mph77%29.95 "Hg10 mi
12:20 AM55 °FClear.7 mph72%29.95 "Hg10 mi
11:50 PM
Aug 21
54 °FClear.5 mph77%29.95 "Hg10 mi
11:20 PM55 °FClear.6 mph72%29.95 "Hg10 mi
10:50 PM55 °FClear.6 mph72%29.95 "Hg10 mi
10:20 PM55 °FClear.6 mph77%29.95 "Hg10 mi
9:50 PM57 °FClear.6 mph67%29.95 "Hg10 mi
9:20 PM57 °FSunny.7 mph67%29.95 "Hg10 mi
8:50 PM57 °FSunny.6 mph67%29.95 "Hg10 mi
8:20 PM59 °FSunny.5 mph63%29.95 "Hg10 mi
7:50 PM61 °FSunny.7 mph59%29.95 "Hg10 mi
7:20 PM63 °FPassing clouds.6 mph56%29.95 "HgN/A
6:50 PM63 °FPassing clouds.7 mph52%29.95 "HgN/A
6:20 PM64 °FPassing clouds.8 mph49%29.95 "HgN/A
5:50 PM64 °FScattered clouds.10 mph49%29.95 "HgN/A
5:20 PM64 °FScattered clouds.9 mph52%29.98 "HgN/A
4:50 PM63 °FScattered clouds.9 mph56%29.98 "HgN/A
4:20 PM63 °FScattered clouds.8 mph59%29.98 "HgN/A
Weather by CustomWeather, © 2014

See weather overviewHow to use our weather pages